GW0781 Weather Reports


time (UTC)temp
C
wind
direction
speed
KPH
gust
KPH
rain 1hr
cm
rain 24hr
cm
rain mn
cm
humidity
%
barometer
mb
20260509054553 5 30 0.0 6.4 0.00 0.00 0.00 97 1016.3
20260509054035 5 348 0.0 6.4 0.00 0.00 0.00 97 1016.5
20260509053536 5 318 1.6 4.8 0.00 0.00 0.00 97 1016.5
20260509053102 5 0 0.0 4.8 0.00 0.00 0.00 97 1016.7
20260509052539 5 352 1.6 4.8 0.00 0.00 0.00 97 1016.7
20260509052035 5 352 0.0 4.8 0.00 0.00 0.00 97 1016.8
20260509051545 5 310 0.0 4.8 0.00 0.00 0.00 97 1016.9
20260509051035 5 5 0.0 4.8 0.00 0.00 0.00 97 1016.9
20260509050535 5 0 0.0 4.8 0.00 0.00 0.00 97 1017.1
20260509050100 5 337 0.0 6.4 0.00 0.00 0.00 97 1017.2
20260509045536 5 321 1.6 6.4 0.00 0.00 0.00 97 1017.2
20260509045036 5 0 1.6 4.8 0.00 0.00 0.00 97 1017.3
20260509044557 5 327 0.0 6.4 0.00 0.00 0.00 96 1017.3
20260509044035 5 352 1.6 6.4 0.00 0.00 0.00 96 1017.3
20260509043536 5 332 0.0 6.4 0.00 0.00 0.00 96 1017.2
20260509043048 5 327 0.0 4.8 0.00 0.00 0.00 96 1017.3
20260509042535 5 341 1.6 4.8 0.00 0.00 0.00 96 1017.3
20260509042037 5 0 0.0 4.8 0.00 0.00 0.00 96 1017.3
20260509041548 5 311 0.0 4.8 0.00 0.00 0.00 96 1017.5
20260509041035 5 331 0.0 3.2 0.00 0.00 0.00 96 1017.7
20260509040535 5 331 0.0 4.8 0.00 0.00 0.00 96 1017.7
20260509040045 5 0 1.6 4.8 0.00 0.00 0.00 96 1017.8
20260509035536 5 330 0.0 4.8 0.00 0.00 0.00 96 1017.7
20260509035035 6 0 1.6 4.8 0.00 0.00 0.00 96 1017.7
20260509034548 6 0 0.0 6.4 0.00 0.00 0.00 95 1017.9
20260509034036 6 336 1.6 6.4 0.00 0.00 0.00 96 1017.9
20260509033536 6 352 0.0 3.2 0.00 0.00 0.00 95 1017.9
20260509033049 6 5 0.0 6.4 0.00 0.00 0.00 95 1017.9
20260509032538 6 0 0.0 6.4 0.00 0.00 0.00 95 1017.9
20260509032035 6 352 0.0 3.2 0.00 0.00 0.00 95 1018.0
20260509031550 6 0 0.0 6.4 0.00 0.00 0.00 95 1018.1
20260509031035 6 360 0.0 6.4 0.00 0.00 0.00 95 1018.1
20260509030536 6 0 0.0 4.8 0.00 0.00 0.00 95 1018.0
20260509030050 6 352 0.0 4.8 0.00 0.00 0.00 95 1018.0
20260509025535 6 0 0.0 4.8 0.00 0.00 0.00 95 1017.9
20260509025035 6 0 0.0 4.8 0.00 0.00 0.00 94 1018.1
20260509024541 6 336 0.0 3.2 0.00 0.00 0.00 94 1017.9
20260509024035 6 313 0.0 4.8 0.00 0.00 0.00 94 1018.0
20260509023535 6 301 1.6 4.8 0.00 0.00 0.00 94 1018.0
20260509023058 6 309 1.6 4.8 0.00 0.00 0.00 94 1017.9
20260509022536 6 323 0.0 3.2 0.00 0.00 0.00 94 1017.9
20260509022036 6 314 0.0 3.2 0.00 0.00 0.00 93 1017.7
20260509021548 6 0 0.0 6.4 0.00 0.00 0.00 94 1017.9
20260509021035 6 317 0.0 6.4 0.00 0.00 0.00 93 1017.8
20260509020537 6 311 0.0 4.8 0.00 0.00 0.00 93 1017.8
20260509020046 6 323 1.6 4.8 0.00 0.00 0.00 93 1017.9
20260509015535 6 0 0.0 8.0 0.00 0.00 0.00 93 1018.0
20260509015037 6 0 1.6 8.0 0.00 0.00 0.00 92 1017.9
20260509014539 6 336 1.6 8.0 0.00 0.00 0.00 92 1018.0
20260509014035 6 0 0.0 4.8 0.00 0.00 0.00 92 1017.9
20260509013535 6 0 0.0 4.8 0.00 0.00 0.00 92 1017.8
20260509013053 6 0 0.0 4.8 0.00 0.00 0.00 92 1017.8
20260509012535 6 344 1.6 4.8 0.00 0.00 0.00 91 1017.7
20260509012035 6 0 0.0 4.8 0.00 0.00 0.00 91 1017.5
20260509011554 7 48 0.0 4.8 0.00 0.00 0.00 91 1017.6
20260509011035 7 352 0.0 6.4 0.00 0.00 0.00 91 1017.4
20260509010535 7 9 0.0 6.4 0.00 0.00 0.00 90 1017.6
20260509010052 7 0 1.6 6.4 0.00 0.00 0.00 90 1017.7
20260509005535 7 0 0.0 4.8 0.00 0.00 0.00 90 1017.7
20260509005035 7 5 0.0 4.8 0.00 0.00 0.00 90 1017.7
20260509004541 7 347 0.0 4.8 0.00 0.00 0.00 89 1017.7
20260509004036 7 0 1.6 4.8 0.00 0.00 0.00 89 1017.5
20260509003535 7 344 0.0 3.2 0.00 0.00 0.00 89 1017.7
20260509003055 7 340 0.0 3.2 0.00 0.00 0.00 89 1017.7
20260509002535 7 0 0.0 4.8 0.00 0.00 0.00 88 1017.7
20260509002037 7 0 0.0 4.8 0.00 0.00 0.00 88 1017.7
20260509001545 7 0 0.0 3.2 0.00 0.00 0.00 87 1017.5
20260509001036 7 0 0.0 4.8 0.00 0.00 0.00 87 1017.5
20260509000535 7 0 0.0 4.8 0.00 0.00 0.00 86 1017.5
20260509000052 8 304 1.6 4.8 0.00 0.00 0.00 86 1017.4
20260508235535 8 329 1.6 4.8 0.00 0.00 0.00 85 1017.2
20260508235035 8 321 0.0 4.8 0.00 0.00 0.00 85 1017.2
20260508234542 8 96 0.0 4.8 0.00 0.00 0.00 85 1017.2
20260508234035 8 292 0.0 4.8 0.00 0.00 0.00 84 1017.4
20260508233535 8 0 1.6 4.8 0.00 0.00 0.00 83 1017.3
20260508233042 8 317 1.6 6.4 0.00 0.00 0.00 82 1017.4
20260508232536 8 317 1.6 6.4 0.00 0.00 0.00 81 1017.5
20260508232038 9 20 0.0 4.8 0.00 0.00 0.00 81 1017.6
20260508231549 9 342 1.6 4.8 0.00 0.00 0.00 80 1017.6
20260508231039 9 323 0.0 4.8 0.00 0.00 0.00 79 1017.3
20260508230538 10 338 1.6 4.8 0.00 0.00 0.00 78 1017.4
20260508230050 10 0 0.0 9.7 0.00 0.00 0.00 76 1017.5
20260508225535 10 0 1.6 9.7 0.00 0.00 0.00 74 1017.3
20260508225036 10 0 0.0 4.8 0.00 0.00 0.00 74 1017.3
20260508224551 10 309 0.0 3.2 0.00 0.00 0.00 73 1017.4
20260508224035 10 0 0.0 4.8 0.00 0.00 0.00 73 1017.3
20260508223535 10 0 0.0 6.4 0.00 0.00 0.00 73 1017.3
20260508223049 10 0 1.6 6.4 0.00 0.00 0.00 72 1017.3
20260508222539 10 0 0.0 4.8 0.00 0.00 0.00 72 1017.3
20260508222038 11 342 1.6 6.4 0.00 0.00 0.00 71 1017.5
20260508221551 11 38 0.0 6.4 0.00 0.00 0.00 71 1017.4
20260508221036 11 5 1.6 6.4 0.00 0.00 0.00 71 1017.4
20260508220538 11 0 0.0 4.8 0.00 0.00 0.00 69 1017.3
20260508220049 11 0 0.0 4.8 0.00 0.00 0.00 69 1017.2
20260508215535 11 291 0.0 8.0 0.00 0.00 0.00 70 1017.3
20260508215036 11 0 0.0 8.0 0.00 0.00 0.00 69 1017.2
20260508214547 11 284 0.0 8.0 0.00 0.00 0.00 69 1017.1
20260508214036 11 224 0.0 6.4 0.00 0.00 0.00 69 1017.2
20260508213539 11 352 1.6 4.8 0.00 0.00 0.00 67 1017.4
20260508213046 11 0 0.0 4.8 0.00 0.00 0.00 66 1017.6
20260508212537 12 0 0.0 4.8 0.00 0.00 0.00 67 1017.5
20260508212039 12 223 0.0 9.7 0.00 0.00 0.00 67 1017.7
20260508211548 12 352 0.0 9.7 0.00 0.00 0.00 65 1017.1
20260508211042 12 26 1.6 4.8 0.00 0.00 0.00 67 1017.2
20260508210541 12 0 1.6 4.8 0.00 0.00 0.00 65 1017.3
20260508210051 12 0 0.0 4.8 0.00 0.00 0.00 65 1017.3
20260508205540 12 302 0.0 4.8 0.00 0.00 0.00 65 1017.4
20260508205036 12 34 0.0 3.2 0.00 0.00 0.00 66 1017.4
20260508204549 12 0 0.0 6.4 0.00 0.00 0.00 65 1017.4
20260508204036 12 0 0.0 8.0 0.00 0.00 0.00 63 1017.7
20260508203535 12 277 1.6 8.0 0.00 0.00 0.00 62 1017.6
20260508203052 12 0 0.0 6.4 0.00 0.00 0.00 63 1017.6
20260508202535 12 0 1.6 6.4 0.00 0.00 0.00 63 1017.6
20260508202038 12 352 0.0 4.8 0.00 0.00 0.00 64 1017.6
20260508201545 12 0 0.0 4.8 0.00 0.00 0.00 61 1017.7
20260508201035 12 0 1.6 4.8 0.00 0.00 0.00 60 1017.7
20260508200535 12 328 0.0 4.8 0.00 0.00 0.00 64 1017.7
20260508200047 12 184 0.0 6.4 0.00 0.00 0.00 63 1017.6
20260508195535 12 0 1.6 6.4 0.00 0.00 0.00 62 1017.7
20260508195035 12 342 3.2 6.4 0.00 0.00 0.00 61 1017.7
20260508194611 12 352 0.0 9.7 0.00 0.00 0.00 59 1017.9
20260508194034 12 324 1.6 9.7 0.00 0.00 0.00 57 1018.1
20260508193535 13 0 0.0 4.8 0.00 0.00 0.00 63 1018.0
20260508193041 12 339 0.0 3.2 0.00 0.00 0.00 62 1018.1
20260508192537 13 248 0.0 4.8 0.00 0.00 0.00 60 1018.4
20260508192036 13 219 0.0 8.0 0.00 0.00 0.00 58 1018.4
20260508191546 13 349 1.6 11.3 0.00 0.00 0.00 58 1018.4
20260508191037 13 42 1.6 12.9 0.00 0.00 0.00 57 1018.4
20260508190536 13 184 1.6 12.9 0.00 0.00 0.00 55 1018.4
20260508190047 13 0 0.0 11.3 0.00 0.00 0.00 60 1018.3
20260508185539 13 263 1.6 11.3 0.00 0.00 0.00 54 1018.3
20260508185035 13 350 1.6 9.7 0.00 0.00 0.00 51 1018.4
20260508184547 13 0 0.0 9.7 0.00 0.00 0.00 53 1018.4
20260508184036 13 219 1.6 8.0 0.00 0.00 0.00 55 1018.7
20260508183535 13 126 1.6 9.7 0.00 0.00 0.00 54 1018.7
20260508183045 13 0 1.6 9.7 0.00 0.00 0.00 55 1018.7
20260508182535 12 0 1.6 4.8 0.00 0.00 0.00 52 1018.6
20260508182035 12 130 0.0 3.2 0.00 0.00 0.00 59 1018.6
20260508181615 12 269 0.0 4.8 0.00 0.00 0.00 59 1018.5
20260508181036 12 0 1.6 4.8 0.00 0.00 0.00 56 1018.8
20260508180535 12 285 1.6 4.8 0.00 0.00 0.00 57 1018.6
20260508180056 12 279 0.0 9.7 0.00 0.00 0.00 61 1018.7
20260508175536 12 320 1.6 9.7 0.00 0.00 0.00 57 1018.8
20260508175036 11 194 0.0 8.0 0.00 0.00 0.00 57 1018.8
20260508174547 11 252 1.6 8.0 0.00 0.00 0.00 55 1018.8
20260508174035 11 0 0.0 6.4 0.00 0.00 0.00 58 1018.7
20260508173537 11 346 1.6 6.4 0.00 0.00 0.00 51 1019.0
20260508173047 11 291 1.6 6.4 0.00 0.00 0.00 54 1018.9
20260508172535 11 311 1.6 6.4 0.00 0.00 0.00 53 1019.1
20260508172035 11 284 1.6 8.0 0.00 0.00 0.00 56 1019.0
20260508171543 11 0 1.6 9.7 0.00 0.00 0.00 53 1019.2
20260508171040 11 0 0.0 9.7 0.00 0.00 0.00 59 1019.1
20260508170537 11 293 1.6 8.0 0.00 0.00 0.00 54 1019.2
20260508170049 10 146 1.6 6.4 0.00 0.00 0.00 51 1019.1
20260508165534 11 273 1.6 4.8 0.00 0.00 0.00 50 1019.2
20260508165035 11 310 0.0 6.4 0.00 0.00 0.00 56 1019.3
20260508164550 11 0 0.0 8.0 0.00 0.00 0.00 60 1019.3
20260508164036 11 76 1.6 8.0 0.00 0.00 0.00 60 1019.5
20260508163535 11 213 0.0 4.8 0.00 0.00 0.00 66 1019.5
20260508163049 10 301 0.0 4.8 0.00 0.00 0.00 61 1019.5
20260508162537 10 336 0.0 4.8 0.00 0.00 0.00 58 1019.6
20260508162035 10 0 1.6 4.8 0.00 0.00 0.00 56 1019.6
20260508161603 10 198 1.6 4.8 0.00 0.00 0.00 59 1019.7
20260508161037 9 333 1.6 4.8 0.00 0.00 0.00 60 1019.6
20260508160537 8 0 1.6 6.4 0.00 0.00 0.00 55 1019.6
20260508160048 8 0 1.6 6.4 0.00 0.00 0.00 60 1019.6
20260508155535 8 296 1.6 4.8 0.00 0.00 0.00 62 1019.6
20260508155035 8 209 1.6 4.8 0.00 0.00 0.00 66 1019.6
20260508154552 8 248 0.0 11.3 0.00 0.00 0.00 68 1019.6
20260508154035 7 274 0.0 11.3 0.00 0.00 0.00 67 1019.7
20260508153536 7 143 3.2 9.7 0.00 0.00 0.00 66 1019.6
20260508153052 7 263 1.6 4.8 0.00 0.00 0.00 72 1019.7
20260508152535 6 290 0.0 4.8 0.00 0.00 0.00 72 1019.8
20260508152035 6 265 1.6 4.8 0.00 0.00 0.00 72 1019.7
20260508151548 6 154 0.0 4.8 0.00 0.00 0.00 72 1019.6
20260508151036 6 282 1.6 3.2 0.00 0.00 0.00 73 1019.7
20260508150536 5 0 1.6 3.2 0.00 0.00 0.00 75 1019.7
20260508150046 5 0 0.0 3.2 0.00 0.00 0.00 76 1019.7
20260508145535 5 292 0.0 3.2 0.00 0.00 0.00 76 1019.6
20260508145036 5 300 0.0 3.2 0.00 0.00 0.00 76 1019.6
20260508144549 5 0 0.0 3.2 0.00 0.00 0.00 77 1019.5
20260508144035 4 300 0.0 3.2 0.00 0.00 0.00 76 1019.5
20260508143535 4 0 0.0 3.2 0.00 0.00 0.00 75 1019.5
20260508143050 4 251 0.0 4.8 0.00 0.00 0.00 78 1019.5
20260508142535 3 0 0.0 4.8 0.00 0.00 0.00 77 1019.5
20260508142036 3 302 0.0 3.2 0.00 0.00 0.00 79 1019.6
20260508141549 3 0 0.0 3.2 0.00 0.00 0.00 80 1019.5
20260508141035 3 298 0.0 3.2 0.00 0.00 0.00 81 1019.6
20260508140535 3 0 0.0 3.2 0.00 0.00 0.00 81 1019.6
20260508140054 3 0 0.0 3.2 0.00 0.00 0.00 81 1019.6
20260508135739 2 0 0.0 1.6 0.00 0.00 0.00 82 1019.5
20260508133538 2 279 0.0 1.6 0.00 0.00 0.00 80 1019.4
20260508133103 2 279 0.0 1.6 0.00 0.00 0.00 79 1019.4
20260508132535 2 0 0.0 1.6 0.00 0.00 0.00 78 1019.5
20260508132036 2 0 0.0 0.0 0.00 0.00 0.00 77 1019.4
20260508131549 2 0 0.0 1.6 0.00 0.00 0.00 76 1019.4
20260508131035 2 0 0.0 1.6 0.00 0.00 0.00 74 1019.3
20260508130535 2 0 0.0 1.6 0.00 0.00 0.00 72 1019.1
20260508130047 2 0 0.0 1.6 0.00 0.00 0.00 71 1019.2
20260508125536 2 0 0.0 1.6 0.00 0.00 0.00 67 1019.1
20260508125035 2 0 0.0 1.6 0.00 0.00 0.00 72 1019.0
20260508124548 2 0 0.0 1.6 0.00 0.00 0.00 69 1018.9
20260508124035 2 0 0.0 1.6 0.00 0.00 0.00 68 1019.0
20260508123535 2 0 0.0 1.6 0.00 0.00 0.00 69 1018.9
20260508123056 2 0 0.0 1.6 0.00 0.00 0.00 68 1018.8
20260508122536 2 0 0.0 1.6 0.00 0.00 0.00 66 1018.8
20260508122035 2 0 0.0 3.2 0.00 0.00 0.00 66 1018.7
20260508121552 2 0 0.0 3.2 0.00 0.00 0.00 64 1018.6
20260508121034 2 0 0.0 3.2 0.00 0.00 0.00 65 1018.6
20260508120536 2 294 0.0 3.2 0.00 0.00 0.00 62 1018.4
20260508120047 2 0 1.6 4.8 0.00 0.00 0.00 59 1018.4
20260508115535 2 288 1.6 4.8 0.00 0.10 0.00 60 1018.2
20260508115110 2 288 0.0 3.2 0.00 0.10 0.00 64 1018.2